Notices

What's New in latest Release from April 7th, 2021:

- Updated Glossary, including Speed of Maximum Gust, and Total Hourly Precipitation

- Updated national and regional climate services offices contacts and prices information

- Addition of station inventory lists for 1981-2010, 1971-2000, and 1961-1990 Normals.

If you haven't already, please take our survey and provide feedback about our website: https://eccc.sondage-survey.ca/f/LanguageSelection.aspx?s=442ca660-fcf1-47c0-95a9-59707d6fd709

Hourly Data Report for November 06, 2019

MIRAMICHI RCS
NEW BRUNSWICK
Current Station Operator: ECCC - MSC

47°00'34.000" N
65°27'54.000" W
33.00 m
8100989
71744
ACQ

Download Data

Hourly Data (November 2019)
Hourly Data Report for November 6, 2019
TIME
LST
Temp Definition
°C
Dew Point Definition
°C
Rel Hum Definition
%
Precip. Amount Definition
mm

Wind Dir Definition
10's deg

Wind Spd Definition
km/h
Visibility Definition
km
Stn Press Definition
kPa
Hmdx Definition


Wind Chill Definition


Weather Definition


00:00 8.1 7.6 97 1.9 25 2   101.04     LegendNANA
01:00 7.8 7.5 98 0.7 14 5   100.90     LegendNANA
02:00 7.3 6.8 97 0.0 30 5   100.80     LegendNANA
03:00 6.1 5.8 98 0.0 27 2   100.77     LegendNANA
04:00 6.0 5.7 98 0.0 20 3   100.70     LegendNANA
05:00 7.5 6.4 93 0.0 25 12   100.76     LegendNANA
06:00 7.1 4.3 83 0.0 26 18   100.73     LegendNANA
07:00 6.3 3.7 83 0.0 27 17   100.79     LegendNANA
08:00 5.7 3.1 83 0.0 26 19   100.84     LegendNANA
09:00 5.2 2.0 80 0.0 26 21   100.85     LegendNANA
10:00 5.9 -0.7 63 0.0 26 29   100.83     LegendNANA
11:00 5.8 -2.1 57 0.0 27 31   100.90     LegendNANA
12:00 7.0 -3.1 48 0.0 27 26   100.94     LegendNANA
13:00 6.6 -7.1 37 0.0 26 39   100.96     LegendNANA
14:00 6.3 -6.3 40 0.0 26 35   100.98     LegendNANA
15:00 4.9 -5.3 48 0.0 27 30   101.08     LegendNANA
16:00 4.0 -5.1 51 0.0 28 39   101.20     LegendNANA
17:00 3.1 -6.1 51 0.0 27 32   101.31     LegendNANA
18:00 1.7 -6.4 55 0.0 26 22   101.46     LegendNANA
19:00 0.8 -7.1 55 0.0 28 14   101.55     LegendNANA
20:00 0.8 -8.2 51 0.0 27 17   101.62     LegendNANA
21:00 0.1 -8.2 53 0.0 26 15   101.71     LegendNANA
22:00 -0.3 -9.0 52 0.0 25 12   101.80   -4 LegendNANA
23:00 -0.3 -9.8 49 0.0 26 12   101.83   -4 LegendNANA

Notes on Data Quality.

Legend

  • E = Estimated
  • M = Missing
  • NA = Not Available*
  • [empty] = Indicates an unobserved value
Date modified: